Вернуться в каталог

CZ-4C DEB

АктивенSSO
NORAD 55837·DEBRIS·🇨🇳 China

Запущен Mar 9, 2023 с Taiyuan Satellite Launch Center

Loading…

Ближайшие Пролёты (ближайшие 24 часа)

TLE

СвежийSource: Space-Track

Эпоха: Sep 14, 2026, 01:04 UTC

1 55837U 23030B   26257.04444741  .00000317  00000-0  22377-3 0  9991
2 55837  98.9802 268.8730 0002388 309.4246  50.6710 14.05160776180251

Отслеживайте CZ-4C DEB в реальном времени с AllMySat

Download on the App Store